Regional Weather Roundup
Issued by NWS Newport/Morehead, NC

Current Version | Previous Version | Text Only | Print | Product List | Glossary On
Versions: 1 2 3 4 5 6 7 8 9 10 11 12 13 14 15 16 17 18 19 20 21 22 23 24 25 26 27 28 29 30 31 32 33 34 35 36 37 38 39 40 41 42 43 44 45 46 47 48 49 50
000
ASUS42 KMHX 251414
RWRMHX
WEATHER ROUNDUP FOR EASTERN NORTH CAROLINA
NATIONAL WEATHER SERVICE NEWPORT/MOREHEAD CITY NC
1000 AM EDT TUE JUL 25 2017

NOTE: "FAIR" INDICATES FEW OR NO CLOUDS BELOW 12,000 FEET
WITH NO SIGNIFICANT WEATHER AND/OR OBSTRUCTIONS TO VISIBILITY

NCZ015>017-031-032-045>047-102-103-251500-
NORTH COAST

CITY           SKY/WX    TMP DP  RH WIND       PRES   REMARKS
EDENTON        CLOUDY    82  74  74 NE8       30.04R
ELIZABETH CITY CLOUDY    82  70  66 NE12      30.03R
KITTY HAWK     CLOUDY    80  69  71 N6        30.02R
MANTEO         MOSUNNY   81  71  71 NE12      30.03R

$$

NCZ045>047-081-094-103-104-251500-
CENTRAL COAST

CITY           SKY/WX    TMP DP  RH WIND       PRES   REMARKS
FRISCO         CLOUDY    85  76  74 SW7       30.03R

$$

NCZ095-097-098-100-101-251500-
SOUTHERN COAST

CITY           SKY/WX    TMP DP  RH WIND       PRES   REMARKS
BEAUFORT       SUNNY     83  76  79 SW8       30.04R
CEDAR ISLAND   NOT AVBL
JACKSONVILLE   MOSUNNY   83  76  79 W8        30.03S
PINEY ISLAND   MOSUNNY  N/A N/A N/A W12       30.03S
WILMINGTON     SUNNY     85  75  72 SW3       30.04S


$$

NCZ011>013-027>030-043-044-078>080-089-090>093-098-251500-
COASTAL PLAIN

CITY           SKY/WX    TMP DP  RH WIND       PRES   REMARKS
AHOSKIE          N/A     80  71  74 N10       30.04S
CLINTON        SUNNY     82  76  83 CALM      30.05S
ELIZABETHTOWN  NOT AVBL
GOLDSBORO      SUNNY     85  75  70 N8        30.02S
GREENVILLE     MOSUNNY   82  73  74 NW5       30.05R
HAVELOCK       SUNNY     84  74  71 W8        30.05R
KENANSVILLE    MOSUNNY   82  73  74 W5        30.04F
KINSTON        SUNNY     84  73  70 NW6       30.04S
NEW BERN       MOSUNNY   84  76  76 W3        30.05R
RICHLANDS      MOSUNNY   84  75  74 NW3       30.05R
ROCKY MOUNT    SUNNY     83  73  72 N6        30.04S
WASHINGTON     MOSUNNY   82  75  80 N3        30.03S
WHITEVILLE     SUNNY     81  74  80 W5        30.05S

$$

AMZ130-135-150-152-154-156-158-170-250-252-270-ANZ085-086-088-633-658-670-251500-
MARINE OBSERVATIONS

STATION/POSITION TIME  TEMP    WIND        PRES    WAVE   SWELL
                       AIR SEA DIR/SP/G            HT/PER HT/PER
                 (UTC) (F)     (DEG/KT/KT) (MB)    (FT/S) (FT/S)
CHESAPEAKE LIGHT NOT AVBL
64 E VA BEACH    1350   77 77  360/ 12/ 16 1016.2    4/ 7   3/ 7
DUCK             1348   74 66  350/  6/  7 1016.7
2 E DUCK         1400      73                N/A     2/ 6
OREGON INLET     1348          350/ 10/ 14   N/A
13E OREGON INLT  1348      72                N/A     3/ 6   3/ 6
HATTERAS CG      1348   82 78  260/  7/ 10 1016.8
DIAMOND BUOY     1350   80 84  270/ 16/ 17 1016.8    5/ 6   2/ 9
CAPE LOOKOUT     1400   82     250/ 10/ 12 1016.9
BEAUFORT LAB     1348   82 79  270/  4/  7 1016.5
30 SE NEW RVR IN 1308   81 84  280/ 10/ 12 1017.3
30 SE NEW RVR IN 1343      84                N/A     4/ 6
27 SE WRIGHTSVLE 1308   82 83  230/ 10/ 14 1017.2
5 SE WRIGHTSVLE  1308   80 81  280/ 10/ 12 1016.8
225 S CAPE HAT   1350   83 83  230/ 16/ 17 1020.2    5/ 6   2/ 8
41 SE CHARLESTON 1350   81 83  260/ 10/ 12 1017.9    3/ 6   2/ 6

$$



USA.gov is the U.S. government's official web portal to all federal, state and local government web resources and services.